Vertical_Velocity
-0 -0 1 0 1 1 1 1 2 3 1 1 1 1 2 -0 1 2 1 1 1 1 1 1 1 1 1 0 -0 -1 0 1 1 0 -1 -1 -1 -2 -2 -1 -0 -1 -1 -2
-1 0 1 0 0 1 0 0 1 1 1 -0 4 2 1 2 1 2 2 1 2 2 1 1 0 -0 0 0 0 -1 -1 -1 -1 -0 0 -1 -2 -1 -1 -2 -1 -1 -1 -1
-0 0 0 0 0 -0 0 -0 0 -1 -1 -0 1 1 1 1 1 0 0 0 -0 -1 -1 -1 -1 -0 -1 -0 -1 -2 -2 0 -1 -3 -1 0 -0 -1 -1 -1 -1 0 0 1
-1 -0 -0 0 0 0 0 -1 -0 -0 0 1 1 1 2 1 1 1 -0 -1 -1 -1 -1 -1 -0 -0 -1 -2 -0 -1 -2 -1 -1 -1 -2 -3 -2 -1 -1 -1 -1 -1 -1 0
-1 -0 -0 -0 -0 0 -0 2 1 0 -0 0 0 0 -0 1 0 0 0 -0 -1 -1 -1 -2 -1 -1 -1 -0 -1 -2 0 -2 -2 -2 -1 -1 -3 -3 -1 -1 -1 -0 -0 -0
-0 0 0 -0 0 -0 -0 1 1 1 1 1 2 2 -1 0 0 1 1 1 0 -0 -1 -2 -0 -1 -2 -2 -2 -1 -1 -2 -2 -1 -2 -3 -3 -1 -2 -1 -1 0 -0 -1
-0 -0 -1 0 0 0 -1 -1 1 1 2 1 2 -1 1 1 1 1 0 -0 0 -0 -1 0 -0 0 -2 -2 -1 -1 -0 -1 -0 1 0 -2 -1 -2 -2 -1 1 -0 1 -2
-1 -0 -0 2 1 -0 -1 -0 1 -0 0 0 0 1 1 1 1 1 -0 0 1 1 -0 -0 1 1 -1 -2 2 -0 -0 -1 -1 0 0 0 0 -1 0 -0 2 -1 2 0
-0 -1 -0 -1 1 2 2 3 1 2 -1 0 1 -1 -1 1 -0 0 1 1 -1 1 0 -3 -1 1 0 -3 0 0 -1 -1 -1 -0 0 1 0 -1 -1 1 1 -2 1 1
-0 -1 -1 -0 -0 0 1 2 1 0 3 0 1 0 3 -2 1 0 -2 1 -0 1 1 -2 -1 2 1 -3 1 -1 -1 -1 -1 -1 -1 -1 0 0 1 -1 2 0 1 2
-1 2 1 -4 -3 -2 1 -4 -2 -1 0 1 -4 8 -1 3 2 -1 0 -0 1 0 1 -0 2 1 1 -0 1 -1 -1 -2 -1 -0 -2 -1 1 -1 1 -3 2 0 -0 2
1 1 3 7 4 -4 2 1 2 1 9 -2 -4 3 -2 4 -1 -1 0 -1 -1 -1 3 -0 -1 -1 -1 2 2 -0 -1 -1 -2 -1 -1 -1 -0 -2 0 -2 -0 0 -1 0
1 4 2 -3 2 -2 -0 5 2 -2 -3 2 4 -4 1 4 -0 0 2 -0 -3 1 2 -2 -0 -1 -4 3 2 -1 -1 -1 -0 0 -1 -2 -1 0 -3 -4 0 -1 -2 -0
-6 -8 14 12 2 9 -1 1 2 3 1 2 3 2 -4 1 4 -0 2 -1 2 2 1 -2 -0 -2 -3 3 0 -1 0 -3 -2 -1 0 -1 -1 -1 1 -1 -6 -1 -0 2
5 2 -15 -9 -5 -3 -4 -6 -0 -0 0 1 -4 2 2 1 4 1 -1 -1 2 3 -1 -1 3 -4 -3 2 -1 -1 -1 -2 -0 -1 -1 -1 -1 -1 -2 -1 0 -0 -8 -4
4 1 3 -0 2 -1 -1 2 -1 1 -1 2 2 -1 -1 3 3 3 0 -1 2 2 -1 0 2 -7 -0 1 0 -0 -1 -2 -1 0 -2 -2 -3 -1 -2 -0 -0 -0 1 -5
1 17 19 13 3 5 2 -1 -1 1 3 -0 0 1 1 0 3 2 0 1 3 4 -1 1 -2 -0 -2 -0 3 -1 -2 -2 -1 -0 -3 -1 -1 -1 -1 -1 -1 -1 -1 -1
-1 -5 -5 -7 -3 -0 3 1 -1 -2 -1 1 0 1 1 1 1 1 0 1 2 2 -2 -0 2 -1 -0 2 -0 -2 1 -0 -1 -1 -2 -1 -2 -2 -1 -1 -2 -0 -0 -1
0 1 0 -3 -1 -1 -2 0 -1 -1 -1 0 0 -0 1 0 1 1 1 1 2 2 -0 3 0 1 -0 -1 -1 -1 1 1 -2 -1 -0 -0 -0 -0 -1 -0 -2 -2 -0 -1
2 1 1 -1 -3 -1 -0 -2 -1 -1 -0 -0 -0 0 0 1 1 2 2 0 1 3 2 3 2 2 1 -1 0 3 0 -0 -0 -1 -0 -0 -1 -2 -1 -0 -1 -1 0 0
0 0 0 0 -1 -1 -2 -1 -1 -1 -1 -0 -0 -0 0 1 1 1 2 0 2 0 0 2 2 0 -0 -0 -0 0 2 2 2 -0 -2 -2 -0 0 0 -0 -1 -1 -1 -0
-1 -1 -1 -1 -2 0 1 -0 -1 -1 -1 -1 -0 -0 -1 0 1 1 0 1 1 1 1 1 0 -2 -1 3 4 2 -0 -1 -3 -3 -2 1 2 1 -1 -2 -1 -1 -0 -1
-1 0 -3 -4 -0 -1 -1 -1 -2 -1 -1 -1 -1 -1 0 0 -0 -0 1 -0 -0 2 0 -1 -2 0 9 1 1 -3 -5 -3 1 2 1 1 -0 -1 -2 1 1 -1 -1 -0
3 -1 -3 -2 -3 0 -2 1 1 -1 -0 0 -1 -0 -1 -1 -2 -1 0 0 1 1 -1 -2 -1 8 -1 -4 -1 1 1 -1 -1 -0 -0 2 0 -0 -0 -0 -0 0 -1 -0
-1 0 0 2 2 -2 -1 -2 -4 -1 -1 -2 -0 -1 -0 0 0 -0 -1 -1 1 0 0 -1 2 3 -2 0 -1 0 0 -1 -1 -1 -1 0 1 0 0 0 0 0 -0 1
-1 -3 -4 -4 -3 -1 -2 -1 3 0 -1 -1 1 1 0 0 0 0 1 0 0 0 1 1 0 1 1 -0 -0 -0 -1 -0 0 -0 -1 1 1 0 0 1 1 0 0 0
-2 -1 3 -1 -2 -0 2 2 -2 -1 0 -0 1 0 0 -0 -0 0 0 -0 0 0 0 1 1 0 1 1 -0 -1 -1 -1 0 -0 -0 0 -0 0 0 0 0 -0 0 -0
Height
5428 5428 5428 5428 5429 5430 5431 5434 5437 5440 5444 5448 5453 5458 5462 5466 5470 5473 5477 5480 5484 5488 5492 5495 5500 5503 5507 5512 5516 5521 5525 5529 5532 5536 5541 5545 5549 5554 5558 5563 5568 5573 5578 5583
5425 5425 5425 5425 5425 5425 5426 5427 5429 5431 5435 5439 5443 5447 5451 5455 5459 5463 5466 5470 5473 5476 5480 5483 5487 5490 5494 5498 5502 5507 5511 5515 5518 5522 5526 5530 5534 5539 5544 5548 5552 5557 5562 5566
5423 5422 5422 5423 5422 5422 5422 5423 5424 5425 5428 5430 5433 5436 5439 5443 5446 5450 5453 5456 5460 5463 5466 5470 5473 5476 5480 5483 5487 5491 5495 5500 5503 5507 5511 5514 5518 5523 5528 5532 5537 5541 5545 5549
5419 5419 5420 5419 5419 5419 5419 5419 5420 5421 5421 5422 5424 5426 5429 5431 5434 5436 5439 5442 5445 5448 5451 5454 5458 5461 5464 5467 5471 5475 5479 5483 5486 5490 5494 5498 5502 5506 5510 5515 5520 5524 5529 5533
5417 5416 5417 5417 5416 5417 5416 5417 5417 5417 5417 5417 5418 5419 5420 5421 5423 5425 5427 5430 5432 5434 5436 5439 5442 5445 5447 5451 5453 5457 5461 5464 5468 5472 5476 5479 5484 5488 5492 5497 5502 5506 5510 5515
5416 5415 5414 5414 5414 5413 5413 5413 5412 5412 5412 5412 5413 5413 5413 5414 5414 5415 5416 5417 5419 5420 5422 5424 5427 5429 5432 5434 5437 5440 5443 5446 5450 5454 5458 5461 5466 5470 5474 5479 5482 5487 5491 5495
5416 5414 5413 5412 5410 5410 5410 5412 5408 5407 5406 5406 5406 5405 5405 5405 5405 5406 5406 5407 5408 5409 5410 5411 5413 5415 5417 5419 5422 5424 5427 5430 5433 5437 5440 5444 5447 5451 5456 5460 5464 5467 5472 5475
5415 5413 5412 5410 5408 5407 5405 5402 5401 5399 5398 5397 5396 5396 5395 5394 5394 5394 5394 5395 5396 5397 5398 5399 5401 5402 5403 5405 5409 5411 5413 5415 5418 5421 5424 5428 5431 5435 5439 5443 5446 5449 5454 5457
5415 5412 5409 5406 5404 5402 5399 5396 5393 5391 5389 5386 5386 5384 5383 5382 5382 5381 5381 5382 5382 5383 5384 5385 5386 5388 5389 5391 5394 5395 5398 5401 5404 5406 5409 5413 5416 5419 5423 5427 5430 5434 5438 5440
5413 5409 5405 5402 5398 5395 5392 5388 5385 5382 5379 5376 5373 5372 5370 5368 5368 5367 5367 5367 5367 5368 5369 5369 5371 5373 5374 5376 5379 5380 5382 5384 5388 5391 5394 5397 5400 5404 5407 5410 5414 5417 5421 5424
5409 5406 5401 5394 5388 5384 5381 5376 5372 5368 5365 5362 5359 5359 5355 5355 5353 5352 5352 5352 5353 5354 5354 5355 5357 5357 5359 5361 5362 5363 5365 5368 5372 5374 5377 5381 5384 5387 5390 5393 5398 5401 5404 5407
5401 5396 5390 5387 5380 5372 5367 5362 5356 5351 5350 5344 5340 5340 5339 5338 5336 5336 5336 5336 5336 5337 5339 5339 5341 5342 5344 5346 5347 5348 5350 5352 5355 5357 5360 5364 5367 5369 5373 5376 5380 5383 5386 5390
5392 5384 5376 5367 5360 5351 5344 5338 5333 5328 5324 5323 5321 5317 5317 5318 5317 5317 5318 5318 5319 5321 5322 5322 5324 5326 5328 5332 5333 5334 5335 5337 5339 5341 5344 5347 5350 5353 5355 5359 5363 5366 5369 5373
5378 5368 5360 5349 5337 5328 5319 5311 5305 5300 5296 5293 5292 5292 5292 5294 5295 5296 5297 5299 5302 5303 5304 5306 5308 5309 5312 5316 5317 5319 5320 5322 5324 5326 5328 5330 5333 5336 5339 5342 5344 5348 5353 5356
5362 5349 5335 5324 5314 5302 5291 5282 5276 5270 5265 5263 5262 5263 5265 5268 5271 5273 5274 5278 5282 5284 5286 5289 5292 5292 5296 5300 5301 5303 5304 5306 5309 5311 5313 5315 5317 5320 5322 5325 5328 5331 5332 5336
5347 5332 5318 5306 5294 5283 5272 5261 5252 5245 5240 5237 5234 5234 5237 5241 5245 5248 5251 5256 5261 5264 5267 5271 5273 5275 5280 5283 5285 5286 5288 5291 5293 5296 5297 5300 5302 5304 5306 5309 5311 5314 5316 5318
5333 5322 5308 5294 5279 5266 5253 5241 5232 5224 5218 5213 5212 5212 5213 5215 5221 5225 5229 5234 5240 5244 5247 5252 5254 5259 5263 5266 5269 5270 5273 5276 5278 5280 5282 5284 5286 5289 5291 5294 5295 5298 5300 5302
5317 5303 5289 5275 5262 5250 5238 5226 5216 5207 5199 5194 5193 5193 5194 5196 5200 5205 5210 5215 5220 5224 5228 5234 5238 5242 5246 5249 5252 5255 5258 5260 5262 5265 5267 5269 5271 5273 5275 5278 5279 5282 5284 5286
5309 5295 5281 5266 5252 5239 5226 5216 5206 5196 5188 5182 5180 5180 5181 5183 5186 5189 5194 5198 5203 5208 5213 5218 5221 5225 5229 5233 5236 5240 5243 5245 5247 5250 5252 5254 5257 5259 5261 5263 5264 5266 5269 5270
5302 5288 5274 5259 5245 5232 5220 5209 5199 5190 5183 5178 5173 5172 5171 5173 5175 5178 5181 5185 5190 5194 5198 5203 5207 5211 5214 5218 5222 5226 5228 5230 5233 5235 5237 5240 5242 5244 5246 5249 5250 5252 5254 5256
5297 5283 5269 5256 5241 5228 5216 5205 5196 5187 5180 5175 5171 5168 5166 5166 5168 5170 5172 5175 5179 5182 5186 5190 5194 5197 5201 5205 5208 5211 5214 5217 5219 5221 5223 5226 5228 5230 5232 5234 5236 5238 5240 5242
5293 5279 5265 5252 5239 5227 5215 5204 5194 5186 5179 5173 5169 5166 5164 5163 5163 5164 5165 5168 5170 5173 5176 5179 5182 5185 5189 5193 5196 5198 5201 5203 5206 5208 5210 5213 5215 5217 5218 5220 5223 5225 5227 5229
5290 5276 5262 5250 5239 5227 5215 5205 5194 5186 5179 5173 5169 5165 5163 5161 5160 5160 5161 5162 5163 5166 5167 5169 5172 5176 5180 5181 5183 5186 5188 5190 5193 5196 5198 5200 5202 5204 5206 5208 5211 5213 5215 5217
5288 5273 5261 5249 5239 5228 5216 5206 5196 5187 5179 5173 5169 5164 5161 5159 5158 5156 5156 5157 5158 5159 5160 5162 5165 5168 5168 5170 5172 5175 5177 5179 5181 5183 5185 5188 5190 5192 5194 5196 5199 5201 5204 5206
5288 5274 5262 5251 5241 5229 5218 5207 5197 5189 5181 5174 5168 5164 5160 5157 5155 5154 5153 5153 5153 5154 5155 5156 5158 5159 5160 5162 5163 5165 5167 5168 5170 5172 5174 5177 5179 5181 5184 5186 5189 5191 5193 5196
5289 5275 5263 5252 5241 5231 5220 5210 5201 5192 5183 5176 5170 5165 5160 5156 5153 5151 5150 5149 5149 5149 5149 5150 5151 5152 5154 5154 5155 5156 5158 5160 5161 5163 5165 5168 5170 5172 5175 5177 5180 5182 5184 5187
5290 5276 5265 5254 5243 5234 5225 5215 5204 5195 5187 5180 5173 5167 5162 5157 5154 5150 5148 5146 5145 5145 5145 5145 5146 5146 5148 5148 5149 5150 5151 5152 5153 5155 5157 5160 5162 5164 5167 5169 5171 5174 5176 5178